SCP
0 0 0 0 0 0 0 0 0 0 0 0 0 0 0 0 0 0 0 0 0 0 0 0 0 0 0 0 0 0 0 0 0 0 0 0 0 0 0 0 0 0 0
0 0 0 0 0 0 0 0 0 0 0 0 0 0 0 0 0 0 0 0 0 0 0 0 0 0 0 0 0 0 0 0 0 0 0 0 0 0 0 0 0 0 0
1 1 1 0 0 0 0 0 0 0 0 0 0 0 0 0 0 0 0 0 0 0 0 0 0 0 0 0 0 0 0 0 0 0 0 0 0 0 0 0 0 0 0
1 1 1 0 0 0 0 0 0 0 0 0 0 0 0 0 0 0 0 0 0 0 0 0 0 0 0 0 0 0 0 0 0 0 0 0 0 0 0 0 0 0 0
1 1 1 1 0 0 0 0 0 0 0 0 0 0 0 0 0 0 0 0 0 0 0 0 0 0 0 0 0 0 0 0 0 0 0 0 0 0 0 0 0 0 0
1 1 1 1 1 0 0 0 0 0 0 0 0 0 0 0 0 0 0 0 0 0 0 0 0 0 0 0 0 0 0 0 0 0 0 0 0 0 0 0 0 0 0
1 1 1 1 1 0 0 0 0 0 0 0 0 0 0 0 0 0 0 0 0 0 0 0 0 0 0 0 0 0 0 0 0 0 0 0 0 0 0 0 0 0 0
1 1 1 1 0 0 0 0 0 0 0 0 0 0 0 0 0 0 0 0 0 0 0 0 0 0 0 0 0 0 0 0 0 0 0 0 0 0 0 0 0 0 0
1 1 1 0 0 0 0 0 0 0 0 0 0 0 0 0 0 0 0 0 0 0 0 0 0 0 0 0 0 0 0 0 0 0 0 0 0 0 0 0 0 0 0
1 1 1 1 0 0 0 0 0 0 0 0 0 0 0 0 0 0 0 0 0 0 0 0 0 0 0 0 0 0 0 0 0 0 0 0 0 0 0 0 0 0 0
1 1 1 1 0 0 0 0 0 0 0 0 0 0 0 0 0 0 0 0 0 0 0 0 0 0 0 0 0 0 0 0 0 0 0 0 0 0 0 0 0 0 0
1 1 1 1 1 0 0 0 0 0 0 0 0 0 0 0 0 0 0 0 0 0 0 0 0 0 0 0 0 0 0 0 0 0 0 0 0 0 0 0 0 0 0
1 1 1 1 1 0 0 0 0 0 0 0 0 0 0 0 0 0 0 0 0 0 0 0 0 0 0 0 0 0 0 0 0 0 0 0 0 0 0 0 0 0 0
0 1 1 1 1 0 0 0 0 0 0 0 0 0 0 0 0 0 0 0 0 0 0 0 0 0 0 0 0 0 0 0 0 0 0 0 0 0 0 0 0 0 0
0 0 1 1 1 0 0 0 0 0 0 0 0 0 0 0 0 0 0 0 0 0 0 0 0 0 0 0 0 0 0 0 0 0 0 0 0 0 0 0 0 0 0
0 0 1 1 1 1 0 0 0 0 0 0 0 0 0 0 0 0 0 0 0 0 0 0 0 0 0 0 0 0 0 0 0 0 0 0 0 0 0 0 0 0 0
0 0 0 1 1 1 1 0 0 0 0 0 0 0 0 0 0 0 0 0 0 0 0 0 0 0 0 0 0 0 0 0 0 0 0 0 0 0 0 0 0 0 0
0 0 0 0 0 1 1 0 0 0 0 0 0 0 0 0 0 0 0 0 0 0 0 0 0 0 0 0 0 0 0 0 0 0 0 0 0 0 0 0 0 0 0
0 0 0 0 0 0 0 0 0 0 0 0 0 0 0 1 0 0 0 0 0 0 0 0 0 0 0 0 0 0 0 0 0 0 0 0 0 0 0 0 0 0 0
1 1 0 0 0 0 0 0 0 0 0 0 0 0 0 0 0 0 0 0 0 0 0 0 0 0 0 0 0 0 0 0 0 0 0 0 0 0 0 0 0 0 0
1 1 1 1 1 0 0 0 0 0 0 0 0 0 0 0 0 0 0 0 0 0 0 0 0 0 0 0 0 0 0 0 0 0 0 0 0 0 0 0 0 0 0
0 0 1 1 1 1 1 1 0 0 0 0 0 0 0 0 0 0 0 0 0 0 0 0 0 0 0 0 0 0 0 0 0 0 0 0 0 0 0 0 0 0 0
0 0 0 0 1 1 1 1 1 0 0 0 0 0 0 0 0 0 0 0 0 0 0 0 0 0 0 0 0 0 0 0 0 0 0 0 0 0 0 0 0 0 0
0 0 0 0 0 1 1 1 1 1 0 0 0 0 0 0 0 0 0 0 0 0 0 0 0 0 0 0 0 0 0 0 0 0 0 0 0 0 0 0 0 0 0
0 0 0 0 0 0 0 1 1 1 0 0 0 0 0 0 0 0 0 0 0 0 0 0 0 0 0 0 0 0 0 0 0 0 0 0 0 0 0 0 0 0 0
0 0 0 0 0 0 0 1 1 1 1 0 0 0 0 0 0 0 0 0 0 0 0 0 0 0 0 0 0 0 0 0 0 0 0 0 0 0 0 0 0 0 0
Wind_Speed
10 13 13 12 11 11 10 10 10 10 10 10 10 11 11 11 11 11 11 12 12 12 13 13 12 13 13 13 13 13 13 12 12 12 12 13 13 13 13 12 12 9 13
13 14 13 12 12 11 10 10 9 9 9 10 10 10 10 11 11 10 10 10 11 11 11 11 11 11 11 11 12 11 11 9 8 7 8 10 12 12 13 13 12 8 12
15 14 12 11 12 11 10 9 9 9 9 9 9 9 10 10 10 10 10 9 9 10 10 10 10 10 10 10 10 10 8 6 6 5 3 3 7 11 11 10 10 10 10
14 13 12 11 11 11 10 10 9 8 8 8 9 9 9 8 8 8 8 8 8 8 9 9 9 9 9 8 8 8 6 5 7 8 2 4 6 9 9 9 9 9 8
12 12 13 12 11 11 10 9 9 8 7 8 8 8 8 8 8 8 7 6 6 6 7 8 8 7 7 7 7 6 5 5 8 7 3 5 5 7 8 7 7 7 7
11 12 13 13 12 11 10 9 8 8 8 8 8 8 7 7 7 7 6 5 5 5 6 7 6 6 5 5 5 4 4 7 8 3 3 5 4 6 6 5 5 5 4
10 11 12 12 11 11 10 9 8 7 7 7 7 7 7 7 6 6 5 5 4 4 5 5 5 4 3 3 3 2 4 8 6 2 2 4 4 4 3 3 3 3 2
9 11 11 11 10 10 9 8 8 7 7 7 7 7 7 7 6 6 5 5 4 4 4 4 3 2 2 1 1 2 4 7 7 4 1 4 4 3 2 1 1 1 0
9 9 10 9 9 8 8 8 7 7 6 6 6 7 6 7 6 5 5 5 5 4 4 4 3 2 2 1 1 1 4 7 6 4 2 3 4 2 2 2 3 3 3
7 7 9 9 9 8 7 8 8 7 7 6 6 6 7 6 6 6 6 5 6 5 5 5 4 4 3 4 4 4 5 6 6 5 2 3 5 3 5 5 6 6 6
6 6 7 8 8 8 8 10 9 7 7 7 6 7 7 5 6 6 7 8 7 6 6 6 6 6 5 6 7 7 5 4 6 3 1 4 5 5 7 8 9 8 9
7 6 6 7 7 7 6 7 6 6 6 6 5 7 5 5 4 6 8 10 8 7 7 8 8 7 6 4 7 8 4 6 5 4 3 7 7 7 9 10 11 11 11
8 7 6 6 6 6 4 5 4 4 5 6 7 7 6 5 3 3 3 5 5 6 5 6 6 4 5 5 3 4 6 5 3 3 3 8 9 10 11 12 13 13 13
8 9 8 7 6 5 5 4 4 3 3 4 5 6 5 3 3 3 3 4 4 4 4 4 4 6 6 6 5 5 5 3 3 3 4 9 11 12 14 15 15 16 16
8 8 9 8 7 6 5 4 4 4 4 5 4 5 5 4 4 4 3 3 4 4 4 4 4 5 5 5 5 5 6 6 5 5 4 9 12 14 16 17 17 17 18
8 8 9 9 8 7 6 5 4 4 4 4 4 5 6 5 4 4 4 4 4 4 4 4 5 5 4 4 5 6 6 6 6 6 6 7 12 15 17 18 19 19 19
8 8 8 9 9 9 8 7 5 4 4 4 4 5 6 6 5 4 4 4 4 4 5 4 4 4 4 4 5 6 6 6 7 7 7 6 6 12 16 19 19 19 20
7 8 8 7 9 9 8 7 5 5 5 5 4 4 6 6 6 5 4 4 5 4 4 4 4 3 4 4 4 4 5 5 7 7 7 7 6 6 9 16 18 19 20
8 8 8 9 9 9 8 7 6 5 5 5 5 5 6 7 7 5 4 4 4 4 4 4 4 4 4 4 4 4 5 5 6 6 7 8 7 7 6 9 14 17 19
6 7 8 8 9 8 7 5 5 5 5 5 5 6 7 6 7 6 5 5 4 4 4 4 4 4 4 3 4 5 5 6 6 7 8 7 7 8 7 7 6 9 16
7 7 7 7 8 7 6 6 6 7 6 5 5 6 7 7 7 7 5 5 5 4 5 5 5 5 4 3 3 4 6 8 9 8 7 6 7 7 7 7 6 5 6
8 7 7 7 7 7 7 6 5 5 5 6 5 6 8 8 8 7 7 6 6 5 6 6 5 4 4 3 3 2 4 4 5 6 5 5 6 5 5 6 6 6 5
6 7 6 6 6 7 7 5 4 4 3 4 5 6 7 8 8 8 8 7 6 6 6 7 6 7 5 4 5 4 3 4 4 3 4 5 5 4 5 5 6 6 7
4 3 4 4 4 5 5 6 7 7 7 7 5 5 6 8 8 8 8 8 7 6 7 6 7 6 6 5 4 6 6 3 3 4 3 3 4 5 6 5 6 6 7
3 3 3 3 3 4 5 6 7 7 6 4 4 5 5 6 7 7 7 7 7 6 7 6 6 7 6 6 5 3 6 6 6 6 7 4 4 4 5 6 6 5 6
2 2 2 3 3 3 4 5 6 6 6 5 5 5 4 4 4 6 6 6 7 6 6 7 7 7 7 7 6 5 4 4 5 6 8 7 6 5 5 5 5 6 6
Wind_Direction
123 130 139 137 134 130 125 120 118 116 115 110 106 103 100 98 96 93 90 89 87 84 82 79 78 76 74 73 72 70 69 67 67 69 69 69 69 67 64 61 66 62 69
124 131 139 138 134 130 127 122 119 119 118 115 112 109 105 101 99 95 92 90 89 86 85 83 80 79 77 76 74 70 67 62 59 60 69 73 73 68 66 63 65 68 69
124 132 140 136 136 132 129 125 122 123 122 119 116 114 109 105 103 99 95 92 91 90 88 85 82 81 79 77 75 70 63 46 18 359 13 93 79 71 69 68 66 67 69
128 138 141 137 138 137 134 131 128 125 124 124 121 118 115 111 109 105 100 96 94 93 92 88 83 83 80 77 75 69 54 20 347 336 19 87 81 74 69 69 67 66 67
128 132 134 139 141 141 140 139 137 136 135 133 129 126 122 120 117 112 107 102 97 97 99 95 88 86 81 77 75 65 35 352 334 328 40 83 83 79 71 70 68 66 64
129 129 138 143 145 146 146 146 146 145 144 141 139 135 129 127 125 122 119 113 106 103 104 102 95 90 84 79 73 55 7 337 324 321 48 80 86 81 74 76 75 75 72
131 130 144 147 149 152 153 154 156 156 153 151 149 147 140 136 136 137 135 131 121 118 113 109 107 99 86 81 72 36 346 330 315 343 54 88 94 91 82 80 86 84 75
131 131 143 148 152 156 159 162 165 163 160 158 158 157 153 150 151 154 155 153 150 148 145 138 131 124 112 88 57 359 329 318 321 322 49 102 113 121 127 132 134 189 211
132 135 146 157 161 162 165 167 169 167 164 162 162 162 158 160 163 166 168 174 176 176 178 176 175 186 202 222 237 280 297 302 305 297 304 115 133 163 219 234 245 247 247
136 147 155 163 169 171 173 177 173 172 172 168 164 165 165 170 173 177 183 190 195 195 197 202 208 217 232 238 237 240 261 288 277 267 254 150 156 212 251 253 252 250 247
150 164 166 167 172 173 175 176 176 178 181 178 174 176 174 187 188 189 200 190 196 203 208 213 219 226 232 238 234 231 242 250 263 264 243 159 182 232 258 261 256 253 251
174 185 178 175 176 176 177 162 178 184 184 193 190 182 195 207 198 186 185 185 192 202 213 222 226 231 233 236 230 224 233 243 253 256 225 191 205 238 258 263 255 255 254
182 186 188 185 181 179 172 166 178 184 179 194 198 185 191 201 189 175 162 176 194 205 215 221 219 224 227 232 221 206 224 240 245 251 227 207 217 239 254 259 258 255 254
186 185 188 187 187 188 183 179 179 179 180 187 194 190 186 189 194 188 184 180 187 194 205 211 205 216 225 232 237 239 246 245 245 248 237 221 221 238 252 257 259 257 256
190 187 185 186 191 192 193 192 189 187 186 190 190 191 191 188 194 201 198 195 196 196 196 208 216 223 225 231 234 235 241 247 249 251 248 233 227 236 250 255 257 258 256
193 193 187 189 194 194 194 195 197 194 192 196 192 191 195 197 197 200 201 200 205 208 207 205 216 224 227 228 236 237 237 240 245 245 244 244 237 236 245 253 256 257 256
193 193 190 190 191 196 199 200 199 196 194 197 199 197 197 199 204 201 200 201 204 207 211 215 226 229 231 232 238 240 241 240 242 246 247 245 242 238 240 249 254 256 257
191 193 192 187 190 196 199 201 201 199 196 198 199 202 206 204 204 205 206 208 202 199 199 207 218 229 235 238 244 247 246 244 243 245 247 247 246 247 241 243 249 253 257
193 191 191 189 193 196 197 197 202 204 201 197 197 203 208 209 207 206 211 212 203 201 203 207 211 217 232 241 248 252 254 254 253 252 251 248 246 246 246 245 242 245 252
190 191 191 191 193 193 191 192 202 209 211 205 203 206 208 210 209 208 211 214 210 208 208 210 218 219 230 244 257 261 258 255 253 249 250 250 248 247 246 248 246 243 243
187 194 197 196 194 187 187 191 199 208 209 211 211 208 211 212 211 210 212 214 214 216 215 212 216 224 231 230 260 276 264 250 247 246 240 242 249 249 245 243 243 244 244
191 195 199 200 197 192 192 192 193 192 201 208 208 210 212 214 214 213 214 214 213 219 222 218 215 221 225 198 206 260 289 289 258 242 234 234 243 250 249 245 242 242 244
195 193 193 197 199 198 191 181 181 192 205 207 211 213 214 215 216 214 215 215 216 216 223 222 217 217 227 218 204 211 244 264 303 279 241 235 240 246 253 255 246 244 244
189 180 186 196 200 200 189 187 189 197 208 212 208 209 207 210 216 216 216 216 218 219 222 222 220 220 221 230 221 221 230 241 271 295 285 258 251 253 254 255 251 249 246
162 161 180 194 205 204 195 195 199 209 214 212 204 209 209 208 210 214 215 217 220 223 225 222 221 221 221 227 227 224 236 244 241 259 279 278 270 255 253 251 251 251 250
146 155 176 187 205 206 200 199 201 209 210 208 210 211 211 208 206 209 213 216 220 224 226 227 225 225 225 228 232 227 221 228 235 244 262 272 272 264 255 253 251 252 251